Weather History for Reidsville, NC

Change the Weather History Date:

Monday, December 31, 2012

  Actual Average (KGSO) Record (KGSO)
Temperature  
Mean Temperature 34 °F 39 °F  
Max Temperature 46 °F 48 °F 71 °F (1923)
Min Temperature 21 °F 30 °F 1 °F (1935)
Degree Days  
Heating Degree Days 32 26  
Month to date heating degree days 735  
Since 1 July heating degree days 1414  
Cooling Degree Days 0 0  
Month to date cooling degree days 1  
Year to date cooling degree days 1484  
Moisture  
Dew Point 24 °F    
Average Humidity 64    
Maximum Humidity 92    
Minimum Humidity 42    
Precipitation  
Precipitation 0.00 in 0.09 in 1.28 in (1975)
Month to date precipitation 2.98  
Year to date precipitation 42.20  
Snow  
Snow 0.00 in 0.10 in 2.70 in (1970)
Month to date snowfall 0.8  
Since 1 July snowfall 0.9  
Snow Depth -    
Sea Level Pressure  
Sea Level Pressure 30.24 in    
Wind  
Wind Speed 2 mph (SW)    
Max Wind Speed 8 mph    
Max Gust Speed -    
Visibility 10 miles    
Events      
T = Trace of Precipitation, MM = Missing Value Source: NWS Daily Summary

Daily Weather History Graph

Daily Weather History Graph

Search for Another Location

Airport:

Trip Planner

Search our weather history database for the weather conditions in past years. The results will help you decide how hot, cold, wet, or windy it might be!

Date:

Astronomy

Dec. 31, 2012 Rise Set
Actual Time 7:31 AM EST 5:14 PM EST
Civil Twilight 7:02 AM EST 5:43 PM EST
Nautical Twilight 6:30 AM EST 6:15 PM EST
Astronomical Twilight 5:58 AM EST 6:46 PM EST
Moon 8:37 PM EST (12/31) 9:17 AM EST (12/31)
Length of Visible Light 10h 40m
Length of Day
9h 43m
Waning Gibbous, 90% of the Moon is Illuminated
Dec 31
Waning Gibbous
Jan 4
Last Quarter
Jan 11
New
Jan 18
First Quarter
Jan 26
Full

Hourly Weather History & Observations

Time (EST) Temp. Windchill Dew Point Humidity Pressure Visibility Wind Dir Wind Speed Gust Speed Precip Events Conditions
12:15 AM 25.3 °F - 20.3 °F 81% 30.36 in 10.0 mi Calm Calm - N/A   Clear
12:35 AM 25.3 °F - 20.5 °F 82% 30.35 in 10.0 mi Calm Calm - N/A   Clear
12:55 AM 24.8 °F - 20.3 °F 83% 30.36 in 10.0 mi Calm Calm - N/A   Clear
1:15 AM 24.3 °F - 19.6 °F 82% 30.34 in 10.0 mi Calm Calm - N/A   Clear
1:35 AM 23.7 °F - 19.8 °F 85% 30.33 in 10.0 mi Calm Calm - N/A   Clear
1:55 AM 24.4 °F - 20.1 °F 84% 30.35 in 10.0 mi Calm Calm - N/A   Clear
2:15 AM 24.3 °F - 20.3 °F 85% 30.34 in 10.0 mi Calm Calm - N/A   Clear
2:35 AM 25.0 °F - 20.1 °F 82% 30.35 in 10.0 mi Calm Calm - N/A   Clear
3:15 AM 24.1 °F - 20.1 °F 85% 30.35 in 10.0 mi Calm Calm - N/A   Clear
3:35 AM 23.4 °F - 20.5 °F 89% 30.35 in 10.0 mi Calm Calm - N/A   Clear
3:55 AM 22.5 °F - 19.9 °F 90% 30.34 in 10.0 mi Calm Calm - N/A   Clear
4:15 AM 21.7 °F - 19.8 °F 92% 30.34 in 10.0 mi Calm Calm - N/A   Clear
4:35 AM 23.9 °F - 21.2 °F 89% 30.33 in 10.0 mi Calm Calm - N/A   Clear
4:55 AM 23.5 °F - 21.6 °F 92% 30.33 in 10.0 mi Calm Calm - N/A   Clear
5:15 AM 25.7 °F - 22.3 °F 87% 30.33 in 10.0 mi Calm Calm - N/A   Clear
5:35 AM 23.2 °F - 20.7 °F 90% 30.33 in 10.0 mi Calm Calm - N/A   Clear
5:55 AM 23.2 °F - 21.0 °F 91% 30.33 in 10.0 mi Calm Calm - N/A   Clear
6:15 AM 23.7 °F - 21.2 °F 90% 30.33 in 10.0 mi Calm Calm - N/A   Clear
6:35 AM 25.9 °F - 22.3 °F 86% 30.31 in 10.0 mi Calm Calm - N/A   Clear
6:55 AM 27.9 °F 24.0 °F 21.7 °F 78% 30.32 in 10.0 mi SW 3.5 mph - N/A   Clear
7:15 AM 27.9 °F 24.0 °F 21.6 °F 77% 30.32 in 10.0 mi SW 3.5 mph - N/A   Clear
7:35 AM 28.6 °F 23.5 °F 21.7 °F 76% 30.33 in 10.0 mi SW 4.6 mph - N/A   Clear
7:55 AM 29.3 °F - 21.7 °F 73% 30.32 in 10.0 mi Calm Calm - N/A   Clear
8:15 AM 30.0 °F - 21.7 °F 71% 30.33 in 10.0 mi Calm Calm - N/A   Clear
8:35 AM 30.4 °F 25.6 °F 21.9 °F 71% 30.33 in 10.0 mi SW 4.6 mph - N/A   Clear
8:55 AM 31.5 °F 28.1 °F 23.0 °F 71% 30.33 in 10.0 mi SW 3.5 mph - N/A   Clear
9:15 AM 32.7 °F 28.3 °F 23.0 °F 67% 30.33 in 10.0 mi WSW 4.6 mph - N/A   Clear
9:35 AM 34.2 °F 29.0 °F 23.2 °F 64% 30.33 in 10.0 mi SW 5.8 mph - N/A   Clear
9:55 AM 34.7 °F 30.6 °F 22.6 °F 61% 30.33 in 10.0 mi SW 4.6 mph - N/A   Clear
10:15 AM 36.1 °F 30.6 °F 22.3 °F 57% 30.33 in 10.0 mi SW 6.9 mph - N/A   Clear
10:35 AM 37.2 °F 33.6 °F 22.1 °F 54% 30.31 in 10.0 mi SW 4.6 mph - N/A   Clear
10:55 AM 38.5 °F 33.4 °F 23.4 °F 55% 30.31 in 10.0 mi WSW 6.9 mph - N/A   Clear
11:15 AM 38.3 °F 35.9 °F 23.4 °F 55% 30.30 in 10.0 mi WSW 3.5 mph - N/A   Clear
11:35 AM 39.2 °F 35.0 °F 23.7 °F 54% 30.29 in 10.0 mi WSW 5.8 mph - N/A   Clear
11:55 AM 39.9 °F 35.8 °F 23.2 °F 51% 30.28 in 10.0 mi West 5.8 mph - N/A   Clear
12:15 PM 41.0 °F 37.1 °F 23.0 °F 49% 30.26 in 10.0 mi SW 5.8 mph - N/A   Clear
12:35 PM 42.4 °F 38.8 °F 23.5 °F 47% 30.23 in 10.0 mi WSW 5.8 mph - N/A   Clear
12:55 PM 42.3 °F 39.4 °F 23.7 °F 48% 30.21 in 10.0 mi SW 4.6 mph - N/A   Clear
1:15 PM 42.8 °F 40.1 °F 24.1 °F 48% 30.21 in 10.0 mi SW 4.6 mph - N/A   Clear
1:35 PM 44.6 °F 42.2 °F 24.6 °F 45% 30.20 in 10.0 mi WSW 4.6 mph - N/A   Clear
1:55 PM 45.5 °F 42.5 °F 25.0 °F 45% 30.20 in 10.0 mi WSW 5.8 mph - N/A   Clear
2:15 PM 46.0 °F 43.1 °F 23.7 °F 42% 30.19 in 10.0 mi SW 5.8 mph - N/A   Clear
2:35 PM 46.0 °F 43.9 °F 24.6 °F 43% 30.18 in 10.0 mi WSW 4.6 mph - N/A   Clear
2:55 PM 45.9 °F 44.6 °F 25.2 °F 44% 30.19 in 10.0 mi West 3.5 mph - N/A   Clear
3:15 PM 45.9 °F 43.6 °F 25.5 °F 45% 30.18 in 10.0 mi SW 4.6 mph - N/A   Clear
3:35 PM 46.4 °F 42.4 °F 26.1 °F 45% 30.19 in 10.0 mi WSW 8.1 mph - N/A   Clear
3:55 PM 46.0 °F 44.8 °F 26.1 °F 46% 30.18 in 10.0 mi WSW 3.5 mph - N/A   Clear
4:15 PM 46.0 °F 43.9 °F 26.6 °F 47% 30.18 in 10.0 mi West 4.6 mph - N/A   Mostly Cloudy
4:35 PM 45.5 °F 44.2 °F 26.6 °F 48% 30.19 in 10.0 mi WSW 3.5 mph - N/A   Overcast
4:55 PM 45.1 °F - 27.0 °F 49% 30.17 in 10.0 mi Calm Calm - N/A   Overcast
5:15 PM 44.8 °F 43.3 °F 27.3 °F 50% 30.16 in 10.0 mi SSW 3.5 mph - N/A   Overcast
5:35 PM 44.6 °F 43.1 °F 27.3 °F 51% 30.17 in 10.0 mi SSW 3.5 mph - N/A   Overcast
5:55 PM 44.2 °F 41.8 °F 27.5 °F 52% 30.19 in 10.0 mi WSW 4.6 mph - N/A   Overcast
6:15 PM 44.2 °F 42.7 °F 27.5 °F 52% 30.16 in 10.0 mi WSW 3.5 mph - N/A   Overcast
6:35 PM 43.9 °F 42.3 °F 27.7 °F 53% 30.16 in 10.0 mi SW 3.5 mph - N/A   Mostly Cloudy
6:55 PM 43.7 °F 41.1 °F 27.7 °F 53% 30.16 in 10.0 mi SW 4.6 mph - N/A   Scattered Clouds
7:15 PM 43.0 °F 41.3 °F 28.2 °F 56% 30.16 in 10.0 mi WSW 3.5 mph - N/A   Clear
7:35 PM 43.5 °F 40.9 °F 28.0 °F 54% 30.15 in 10.0 mi SW 4.6 mph - N/A   Scattered Clouds
7:55 PM 43.0 °F 39.5 °F 28.2 °F 56% 30.13 in 10.0 mi SW 5.8 mph - N/A   Clear
8:15 PM 42.8 °F 39.3 °F 28.2 °F 56% 30.13 in 10.0 mi SW 5.8 mph - N/A   Clear
8:35 PM 42.8 °F 41.1 °F 28.2 °F 56% 30.13 in 10.0 mi WSW 3.5 mph - N/A   Clear
8:55 PM 42.1 °F 39.2 °F 28.4 °F 58% 30.12 in 10.0 mi WSW 4.6 mph - N/A   Clear
9:15 PM 42.1 °F 39.2 °F 29.1 °F 60% 30.11 in 10.0 mi SW 4.6 mph - N/A   Clear
9:35 PM 41.9 °F 40.0 °F 28.8 °F 60% 30.11 in 10.0 mi SW 3.5 mph - N/A   Clear
9:55 PM 42.3 °F 40.5 °F 29.1 °F 60% 30.11 in 10.0 mi SW 3.5 mph - N/A   Clear
10:15 PM 42.1 °F 39.2 °F 29.3 °F 61% 30.10 in 10.0 mi SW 4.6 mph - N/A   Clear
10:35 PM 42.4 °F 38.8 °F 29.3 °F 60% 30.09 in 10.0 mi SW 5.8 mph - N/A   Clear
10:55 PM 43.0 °F 38.8 °F 29.1 °F 58% 30.10 in 10.0 mi WSW 6.9 mph - N/A   Clear
11:15 PM 44.1 °F 39.5 °F 28.4 °F 54% 30.10 in 10.0 mi WSW 8.1 mph - N/A   Clear
11:35 PM 44.6 °F 40.7 °F 28.4 °F 53% 30.10 in 10.0 mi WSW 6.9 mph - N/A   Clear
11:55 PM 44.2 °F 40.3 °F 28.6 °F 54% 30.08 in 10.0 mi SW 6.9 mph - N/A   Clear